TimeEDT,TemperatureF,Dew PointF,Humidity,Sea Level PressureIn,VisibilityMPH,Wind Direction,Wind SpeedMPH,Gust SpeedMPH,PrecipitationIn,Events,Conditions,WindDirDegrees,DateUTC
12:15 AM,57.2,57.2,100,30.33,5.0,Calm,Calm,-,N/A,,Clear,0,2013-08-25 04:15:00
12:35 AM,56.8,56.7,99,30.33,5.0,Calm,Calm,-,N/A,,Clear,0,2013-08-25 04:35:00
12:55 AM,56.3,56.1,99,30.33,4.0,Calm,Calm,-,N/A,,Clear,0,2013-08-25 04:55:00
1:15 AM,56.7,56.7,100,30.34,4.0,Calm,Calm,-,N/A,,Clear,0,2013-08-25 05:15:00
1:35 AM,56.3,56.3,100,30.34,5.0,Calm,Calm,-,N/A,,Clear,0,2013-08-25 05:35:00
1:55 AM,56.3,56.3,100,30.34,5.0,Calm,Calm,-,N/A,,Clear,0,2013-08-25 05:55:00
2:15 AM,55.8,55.8,100,30.34,4.0,Calm,Calm,-,N/A,,Clear,0,2013-08-25 06:15:00
2:35 AM,55.6,55.6,100,30.34,7.0,Calm,Calm,-,N/A,,Clear,0,2013-08-25 06:35:00
2:55 AM,55.2,55.2,100,30.34,5.0,Calm,Calm,-,N/A,,Clear,0,2013-08-25 06:55:00
3:15 AM,55.4,55.4,100,30.33,5.0,Calm,Calm,-,N/A,,Clear,0,2013-08-25 07:15:00
3:35 AM,55.6,55.6,100,30.33,7.0,Calm,Calm,-,N/A,,Clear,0,2013-08-25 07:35:00
3:55 AM,54.9,54.9,100,30.33,5.0,Calm,Calm,-,N/A,,Clear,0,2013-08-25 07:55:00
4:15 AM,54.5,54.5,100,30.34,5.0,Calm,Calm,-,N/A,,Clear,0,2013-08-25 08:15:00
4:35 AM,54.5,54.5,100,30.34,5.0,Calm,Calm,-,N/A,,Clear,0,2013-08-25 08:35:00
4:55 AM,54.5,54.5,100,30.35,5.0,Calm,Calm,-,N/A,,Clear,0,2013-08-25 08:55:00
5:15 AM,55.4,55.4,100,30.36,5.0,Calm,Calm,-,N/A,,Mostly Cloudy,0,2013-08-25 09:15:00
5:35 AM,54.7,54.7,100,30.36,7.0,Calm,Calm,-,N/A,,Scattered Clouds,0,2013-08-25 09:35:00
5:55 AM,53.8,53.8,100,30.36,5.0,Calm,Calm,-,N/A,,Clear,0,2013-08-25 09:55:00
6:15 AM,53.6,53.6,100,30.36,7.0,Calm,Calm,-,N/A,,Clear,0,2013-08-25 10:15:00
6:35 AM,53.6,53.6,100,30.38,7.0,Calm,Calm,-,N/A,,Clear,0,2013-08-25 10:35:00
6:55 AM,53.4,53.4,100,30.39,4.0,Calm,Calm,-,N/A,,Clear,0,2013-08-25 10:55:00
7:15 AM,54.9,54.9,100,30.40,7.0,Calm,Calm,-,N/A,,Clear,0,2013-08-25 11:15:00
7:35 AM,56.8,56.8,100,30.41,7.0,Calm,Calm,-,N/A,,Clear,0,2013-08-25 11:35:00
7:55 AM,59.9,59.9,100,30.41,10.0,Calm,Calm,-,N/A,,Clear,0,2013-08-25 11:55:00
8:15 AM,60.8,60.8,100,30.41,10.0,Calm,Calm,-,N/A,,Clear,0,2013-08-25 12:15:00
8:35 AM,61.7,60.8,97,30.42,10.0,Calm,Calm,-,N/A,,Clear,0,2013-08-25 12:35:00
8:55 AM,63.9,61.7,93,30.42,10.0,Calm,Calm,-,N/A,,Clear,0,2013-08-25 12:55:00
9:15 AM,65.7,62.6,90,30.42,10.0,Calm,Calm,-,N/A,,Clear,0,2013-08-25 13:15:00
9:35 AM,67.1,62.6,85,30.42,10.0,Calm,Calm,-,N/A,,Clear,0,2013-08-25 13:35:00
9:55 AM,69.4,63.1,80,30.43,10.0,NNE,3.5,-,N/A,,Clear,30,2013-08-25 13:55:00
10:15 AM,70.7,62.6,75,30.43,10.0,NE,3.5,-,N/A,,Clear,50,2013-08-25 14:15:00
10:35 AM,71.6,61.9,71,30.42,10.0,ESE,3.5,-,N/A,,Clear,110,2013-08-25 14:35:00
10:55 AM,72.7,62.6,71,30.42,10.0,East,3.5,-,N/A,,Clear,100,2013-08-25 14:55:00
11:15 AM,73.2,61.9,68,30.41,10.0,Calm,Calm,-,N/A,,Clear,0,2013-08-25 15:15:00
11:35 AM,73.6,62.4,68,30.41,10.0,Calm,Calm,-,N/A,,Clear,0,2013-08-25 15:35:00
11:55 AM,75.2,62.2,64,30.41,10.0,Calm,Calm,-,N/A,,Clear,0,2013-08-25 15:55:00
12:15 PM,75.2,61.9,63,30.40,10.0,Calm,Calm,-,N/A,,Scattered Clouds,0,2013-08-25 16:15:00
12:35 PM,75.4,60.8,60,30.40,10.0,Calm,Calm,-,N/A,,Scattered Clouds,0,2013-08-25 16:35:00
12:55 PM,75.2,62.1,64,30.39,10.0,NE,3.5,-,N/A,,Clear,50,2013-08-25 16:55:00
1:15 PM,76.1,61.3,60,30.39,7.0,Calm,Calm,-,N/A,,Scattered Clouds,0,2013-08-25 17:15:00
1:35 PM,75.6,61.9,62,30.39,10.0,NE,4.6,-,N/A,,Scattered Clouds,50,2013-08-25 17:35:00
1:55 PM,77.0,59.5,55,30.38,10.0,East,3.5,-,N/A,,Scattered Clouds,100,2013-08-25 17:55:00
2:15 PM,78.1,61.2,56,30.38,10.0,NE,3.5,-,N/A,,Scattered Clouds,50,2013-08-25 18:15:00
2:35 PM,77.4,59.9,55,30.36,10.0,East,4.6,-,N/A,,Clear,90,2013-08-25 18:35:00
2:55 PM,77.9,61.2,56,30.36,10.0,East,3.5,-,N/A,,Scattered Clouds,80,2013-08-25 18:55:00
3:15 PM,78.3,60.1,53,30.35,10.0,Calm,Calm,-,N/A,,Scattered Clouds,0,2013-08-25 19:15:00
3:35 PM,78.4,61.3,56,30.34,10.0,NE,3.5,-,N/A,,Scattered Clouds,50,2013-08-25 19:35:00
3:55 PM,77.9,61.2,56,30.33,10.0,Calm,Calm,-,N/A,,Scattered Clouds,0,2013-08-25 19:55:00
4:15 PM,76.8,59.9,56,30.33,10.0,Calm,Calm,-,N/A,,Clear,0,2013-08-25 20:15:00
4:35 PM,77.7,61.2,57,30.33,10.0,NNE,4.6,-,N/A,,Clear,20,2013-08-25 20:35:00
4:55 PM,78.6,61.0,55,30.34,10.0,East,3.5,-,N/A,,Scattered Clouds,90,2013-08-25 20:55:00
5:15 PM,77.5,59.9,54,30.33,10.0,ENE,3.5,-,N/A,,Scattered Clouds,70,2013-08-25 21:15:00
5:35 PM,77.7,60.3,55,30.33,10.0,Calm,Calm,-,N/A,,Clear,0,2013-08-25 21:35:00
5:55 PM,77.2,60.4,56,30.33,10.0,East,3.5,-,N/A,,Clear,100,2013-08-25 21:55:00
6:15 PM,77.0,60.3,56,30.33,10.0,Calm,Calm,-,N/A,,Clear,0,2013-08-25 22:15:00
6:35 PM,76.3,59.0,55,30.32,10.0,Calm,Calm,-,N/A,,Clear,0,2013-08-25 22:35:00
6:55 PM,75.2,59.9,59,30.32,10.0,Calm,Calm,-,N/A,,Clear,0,2013-08-25 22:55:00
7:15 PM,71.4,64.2,78,30.32,10.0,Calm,Calm,-,N/A,,Clear,0,2013-08-25 23:15:00
7:35 PM,68.2,64.9,89,30.32,10.0,Calm,Calm,-,N/A,,Clear,0,2013-08-25 23:35:00
7:55 PM,65.8,63.5,92,30.32,10.0,Calm,Calm,-,N/A,,Clear,0,2013-08-25 23:55:00
8:15 PM,63.9,62.4,95,30.32,10.0,Calm,Calm,-,N/A,,Clear,0,2013-08-26 00:15:00
8:35 PM,62.4,61.2,96,30.33,10.0,Calm,Calm,-,N/A,,Clear,0,2013-08-26 00:35:00
8:55 PM,61.2,60.1,96,30.32,7.0,Calm,Calm,-,N/A,,Clear,0,2013-08-26 00:55:00
9:15 PM,59.9,59.2,97,30.33,7.0,Calm,Calm,-,N/A,,Clear,0,2013-08-26 01:15:00
9:35 PM,59.2,58.8,99,30.34,10.0,Calm,Calm,-,N/A,,Clear,0,2013-08-26 01:35:00
9:55 PM,58.5,58.1,99,30.34,7.0,Calm,Calm,-,N/A,,Clear,0,2013-08-26 01:55:00
10:15 PM,57.9,57.6,99,30.33,7.0,Calm,Calm,-,N/A,,Clear,0,2013-08-26 02:15:00
10:35 PM,57.2,56.7,98,30.34,7.0,Calm,Calm,-,N/A,,Clear,0,2013-08-26 02:35:00
10:55 PM,56.8,56.5,99,30.34,7.0,Calm,Calm,-,N/A,,Clear,0,2013-08-26 02:55:00
11:15 PM,57.2,57.2,100,30.35,7.0,Calm,Calm,-,N/A,,Clear,0,2013-08-26 03:15:00
11:35 PM,56.7,56.5,99,30.34,7.0,Calm,Calm,-,N/A,,Clear,0,2013-08-26 03:35:00
11:55 PM,56.5,56.3,99,30.35,7.0,Calm,Calm,-,N/A,,Clear,0,2013-08-26 03:55:00